• en France
  • Liste des pays
  • À 7 jours
  • Température de l'eau
  • Carte satellitaire
  • Carte météo
  • Widgets météo
  • user-avatar
    Se connecter

    Météo par heure à Balahani

    Ce jour, 22 Août, Mercredi

    Heure Température Précipitation Vent Pression Humidité
    00:00 +18°C° 0 mm 2 m/s 684 mmHg 72%
    01:00 +17°C° 0 mm 2 m/s 684 mmHg 69%
    02:00 +17°C° 0 mm 2 m/s 684 mmHg 66%
    03:00 +17°C° 0 mm 2 m/s 684 mmHg 63%
    04:00 +17°C° 0 mm 2 m/s 684 mmHg 62%
    05:00 +18°C° 0 mm 2 m/s 684 mmHg 61%
    06:00 +18°C° 0 mm 2 m/s 684 mmHg 59%
    07:00 +20°C° 0 mm 2 m/s 684 mmHg 56%
    08:00 +23°C° 0 mm 2 m/s 685 mmHg 52%
    09:00 +25°C° 0 mm 1 m/s 685 mmHg 48%
    10:00 +26°C° 0 mm 2 m/s 685 mmHg 48%
    11:00 +27°C° 0 mm 2 m/s 685 mmHg 48%
    12:00 +27°C° 0 mm 2 m/s 685 mmHg 47%
    13:00 +27°C° 0,3 mm 2 m/s 685 mmHg 50%
    14:00 +27°C° 0,3 mm 2 m/s 685 mmHg 52%
    15:00 +27°C° 0,3 mm 2 m/s 684 mmHg 54%
    16:00 +26°C° 0,5 mm 2 m/s 684 mmHg 60%
    17:00 +25°C° 0,5 mm 2 m/s 684 mmHg 65%
    18:00 +24°C° 0,5 mm 1 m/s 684 mmHg 71%
    19:00 +23°C° 0,3 mm 1 m/s 684 mmHg 74%
    20:00 +22°C° 0,3 mm 1 m/s 684 mmHg 76%
    21:00 +20°C° 0,3 mm 2 m/s 684 mmHg 79%
    22:00 +19°C° 0,2 mm 2 m/s 685 mmHg 79%
    23:00 +19°C° 0,2 mm 2 m/s 685 mmHg 79%

    Demain, 23 Août, Jeudi

    Heure Température Précipitation Vent Pression Humidité
    00:00 +19°C° 0,2 mm 2 m/s 685 mmHg 79%
    01:00 +18°C° 0 mm 2 m/s 684 mmHg 79%
    02:00 +18°C° 0 mm 2 m/s 684 mmHg 79%
    03:00 +18°C° 0 mm 2 m/s 684 mmHg 79%
    04:00 +18°C° 0 mm 2 m/s 685 mmHg 78%
    05:00 +18°C° 0 mm 2 m/s 685 mmHg 77%
    06:00 +18°C° 0 mm 2 m/s 685 mmHg 76%
    07:00 +20°C° 0 mm 2 m/s 686 mmHg 69%
    08:00 +23°C° 0 mm 2 m/s 686 mmHg 61%
    09:00 +25°C° 0 mm 2 m/s 686 mmHg 54%
    10:00 +26°C° 0 mm 2 m/s 687 mmHg 52%
    11:00 +26°C° 0 mm 3 m/s 687 mmHg 50%
    12:00 +27°C° 0 mm 3 m/s 687 mmHg 48%
    13:00 +27°C° 0,1 mm 3 m/s 687 mmHg 49%
    14:00 +27°C° 0,1 mm 3 m/s 686 mmHg 50%
    15:00 +26°C° 0,1 mm 3 m/s 686 mmHg 51%
    16:00 +25°C° 0 mm 2 m/s 686 mmHg 56%
    17:00 +24°C° 0 mm 2 m/s 686 mmHg 61%
    18:00 +23°C° 0 mm 2 m/s 686 mmHg 66%
    19:00 +21°C° 0 mm 2 m/s 686 mmHg 71%
    20:00 +21°C° 0 mm 1 m/s 686 mmHg 76%
    21:00 +19°C° 0 mm 1 m/s 686 mmHg 81%
    22:00 +19°C° 0 mm 1 m/s 686 mmHg 81%
    23:00 +19°C° 0 mm 1 m/s 686 mmHg 80%

    Après-demain, 24 Août, Vendredi

    Heure Température Précipitation Vent Pression Humidité
    00:00 +19°C° 0 mm 1 m/s 686 mmHg 80%
    01:00 +17°C° 0 mm 2 m/s 686 mmHg 80%
    02:00 +17°C° 0 mm 2 m/s 686 mmHg 79%
    03:00 +17°C° 0 mm 2 m/s 686 mmHg 79%
    04:00 +17°C° 0 mm 2 m/s 686 mmHg 78%
    05:00 +17°C° 0 mm 2 m/s 686 mmHg 78%
    06:00 +18°C° 0 mm 2 m/s 686 mmHg 78%
    07:00 +20°C° 0 mm 2 m/s 686 mmHg 72%
    08:00 +22°C° 0 mm 3 m/s 687 mmHg 67%
    09:00 +24°C° 0 mm 3 m/s 687 mmHg 62%
    10:00 +25°C° 0 mm 3 m/s 687 mmHg 62%
    11:00 +25°C° 0 mm 4 m/s 687 mmHg 61%
    12:00 +26°C° 0 mm 4 m/s 687 mmHg 61%
    13:00 +26°C° 0,1 mm 4 m/s 686 mmHg 62%
    14:00 +26°C° 0,1 mm 4 m/s 686 mmHg 63%
    15:00 +25°C° 0,1 mm 4 m/s 686 mmHg 64%
    16:00 +24°C° 0,3 mm 3 m/s 686 mmHg 68%
    17:00 +22°C° 0,3 mm 3 m/s 685 mmHg 72%
    18:00 +21°C° 0,3 mm 3 m/s 685 mmHg 77%
    19:00 +20°C° 0,1 mm 2 m/s 685 mmHg 79%
    20:00 +19°C° 0,1 mm 2 m/s 685 mmHg 81%
    21:00 +18°C° 0,1 mm 2 m/s 685 mmHg 83%
    22:00 +18°C° 0 mm 2 m/s 685 mmHg 81%
    23:00 +18°C° 0 mm 2 m/s 685 mmHg 79%

    25 Août, Samedi

    Heure Température Précipitation Vent Pression Humidité
    00:00 +17°C° 0 mm 2 m/s 685 mmHg 77%
    01:00 +17°C° 0 mm 2 m/s 684 mmHg 76%
    02:00 +18°C° 0 mm 1 m/s 684 mmHg 75%
    03:00 +18°C° 0 mm 1 m/s 684 mmHg 74%
    04:00 +18°C° 0 mm 1 m/s 684 mmHg 73%
    05:00 +18°C° 0 mm 1 m/s 684 mmHg 72%
    06:00 +19°C° 0 mm 1 m/s 684 mmHg 71%
    07:00 +20°C° 0 mm 2 m/s 685 mmHg 65%
    08:00 +23°C° 0 mm 2 m/s 685 mmHg 58%
    09:00 +25°C° 0 mm 2 m/s 685 mmHg 51%
    10:00 +26°C° 0,1 mm 3 m/s 685 mmHg 50%
    11:00 +26°C° 0,1 mm 3 m/s 685 mmHg 49%
    12:00 +27°C° 0,1 mm 4 m/s 685 mmHg 48%
    13:00 +27°C° 0,3 mm 4 m/s 685 mmHg 49%
    14:00 +27°C° 0,3 mm 4 m/s 685 mmHg 51%
    15:00 +27°C° 0,3 mm 4 m/s 685 mmHg 52%
    16:00 +25°C° 0,1 mm 4 m/s 685 mmHg 57%
    17:00 +24°C° 0,1 mm 3 m/s 685 mmHg 62%
    18:00 +22°C° 0,1 mm 3 m/s 685 mmHg 67%
    19:00 +21°C° 0,1 mm 3 m/s 685 mmHg 71%
    20:00 +20°C° 0,1 mm 2 m/s 684 mmHg 75%
    21:00 +18°C° 0,1 mm 2 m/s 684 mmHg 79%
    22:00 +18°C° 0 mm 2 m/s 684 mmHg 77%
    23:00 +18°C° 0 mm 2 m/s 684 mmHg 76%

    26 Août, Dimanche

    Heure Température Précipitation Vent Pression Humidité
    00:00 +18°C° 0 mm 2 m/s 684 mmHg 74%
    01:00 +18°C° 0 mm 2 m/s 684 mmHg 72%
    02:00 +18°C° 0 mm 2 m/s 683 mmHg 70%
    03:00 +17°C° 0 mm 2 m/s 683 mmHg 68%
    04:00 +17°C° 0 mm 2 m/s 683 mmHg 66%
    05:00 +18°C° 0 mm 2 m/s 683 mmHg 64%
    06:00 +18°C° 0 mm 2 m/s 683 mmHg 61%
    07:00 +20°C° 0 mm 2 m/s 684 mmHg 54%
    08:00 +24°C° 0 mm 3 m/s 684 mmHg 46%
    09:00 +27°C° 0 mm 3 m/s 684 mmHg 39%
    10:00 +27°C° 0 mm 3 m/s 684 mmHg 38%
    11:00 +28°C° 0 mm 4 m/s 684 mmHg 37%
    12:00 +29°C° 0 mm 4 m/s 684 mmHg 37%
    13:00 +29°C° 0 mm 4 m/s 683 mmHg 39%
    14:00 +29°C° 0 mm 4 m/s 683 mmHg 41%
    15:00 +29°C° 0 mm 4 m/s 683 mmHg 43%
    16:00 +27°C° 0 mm 4 m/s 682 mmHg 49%
    17:00 +26°C° 0 mm 3 m/s 682 mmHg 55%
    18:00 +24°C° 0 mm 3 m/s 682 mmHg 62%
    19:00 +23°C° 0 mm 2 m/s 682 mmHg 65%
    20:00 +20°C° 0 mm 2 m/s 682 mmHg 68%
    21:00 +19°C° 0 mm 2 m/s 682 mmHg 71%
    22:00 +19°C° 0 mm 2 m/s 682 mmHg 69%
    23:00 +19°C° 0 mm 2 m/s 681 mmHg 67%

    27 Août, Lundi

    Heure Température Précipitation Vent Pression Humidité
    00:00 +18°C° 0 mm 2 m/s 681 mmHg 64%
    01:00 +18°C° 0 mm 2 m/s 681 mmHg 62%
    02:00 +18°C° 0 mm 2 m/s 681 mmHg 60%
    03:00 +18°C° 0 mm 2 m/s 681 mmHg 58%
    04:00 +18°C° 0 mm 2 m/s 681 mmHg 58%
    05:00 +19°C° 0 mm 1 m/s 681 mmHg 58%
    06:00 +19°C° 0 mm 1 m/s 681 mmHg 58%
    07:00 +20°C° 0 mm 2 m/s 682 mmHg 53%
    08:00 +23°C° 0 mm 2 m/s 682 mmHg 48%
    09:00 +25°C° 0 mm 2 m/s 683 mmHg 44%
    10:00 +26°C° 0 mm 3 m/s 683 mmHg 43%
    11:00 +27°C° 0 mm 3 m/s 683 mmHg 43%
    12:00 +28°C° 0 mm 3 m/s 682 mmHg 42%
    13:00 +27°C° 0,2 mm 4 m/s 682 mmHg 44%
    14:00 +27°C° 0,2 mm 4 m/s 682 mmHg 46%
    15:00 +27°C° 0,2 mm 4 m/s 682 mmHg 48%
    16:00 +25°C° 0,3 mm 3 m/s 682 mmHg 54%
    17:00 +24°C° 0,3 mm 3 m/s 682 mmHg 61%
    18:00 +23°C° 0,3 mm 2 m/s 682 mmHg 67%
    19:00 +21°C° 0,3 mm 2 m/s 682 mmHg 72%
    20:00 +20°C° 0,3 mm 1 m/s 683 mmHg 77%
    21:00 +19°C° 0,3 mm 1 m/s 683 mmHg 82%
    22:00 +19°C° 0,1 mm 1 m/s 683 mmHg 81%
    23:00 +19°C° 0,1 mm 1 m/s 683 mmHg 81%
    Voir plus